Time,TemperatureF,DewpointF,PressureIn,WindDirection,WindDirectionDegrees,WindSpeedMPH,WindSpeedGustMPH,Humidity,HourlyPrecipIn,Conditions,Clouds,dailyrainin,SoftwareType,DateUTC
2013-07-18 00:04:00,80.2,71.6,30.05,WSW,257,0.0,0.0,75,0.00,,,0.00,meteohub,2013-07-18 05:04:00,
2013-07-18 00:09:00,80.2,71.6,30.05,WSW,257,0.0,0.0,75,0.00,,,0.00,meteohub,2013-07-18 05:09:00,
2013-07-18 00:14:00,80.1,71.4,30.05,WSW,257,0.0,0.0,75,0.00,,,0.00,meteohub,2013-07-18 05:14:00,
2013-07-18 00:19:00,80.1,71.8,30.05,WSW,257,0.0,0.0,76,0.00,,,0.00,meteohub,2013-07-18 05:19:00,
2013-07-18 00:24:00,79.9,71.6,30.05,WSW,258,0.0,0.0,76,0.00,,,0.00,meteohub,2013-07-18 05:24:00,
2013-07-18 00:29:00,79.9,71.6,30.05,WSW,257,0.0,0.0,76,0.00,,,0.00,meteohub,2013-07-18 05:29:00,
2013-07-18 00:34:00,79.9,71.6,30.05,WSW,257,0.0,0.0,76,0.00,,,0.00,meteohub,2013-07-18 05:34:00,
2013-07-18 00:39:00,79.7,71.4,30.05,WSW,257,0.0,0.0,76,0.00,,,0.00,meteohub,2013-07-18 05:39:00,
2013-07-18 00:44:00,79.7,71.8,30.05,WSW,257,0.0,0.0,77,0.00,,,0.00,meteohub,2013-07-18 05:44:00,
2013-07-18 00:49:00,79.7,71.8,30.04,WSW,257,0.0,0.0,77,0.00,,,0.00,meteohub,2013-07-18 05:49:00,
2013-07-18 00:54:00,79.7,71.8,30.04,WSW,257,0.0,0.0,77,0.00,,,0.00,meteohub,2013-07-18 05:54:00,
2013-07-18 00:59:00,79.7,71.8,30.05,West,266,0.0,0.0,77,0.00,,,0.00,meteohub,2013-07-18 05:59:00,
2013-07-18 01:05:00,79.7,71.8,30.05,West,264,0.0,3.0,77,0.00,,,0.00,meteohub,2013-07-18 06:05:00,
2013-07-18 01:10:00,79.7,72.1,30.05,West,265,0.0,3.0,78,0.00,,,0.00,meteohub,2013-07-18 06:10:00,
2013-07-18 01:15:00,79.7,72.1,30.05,West,265,0.0,0.0,78,0.00,,,0.00,meteohub,2013-07-18 06:15:00,
2013-07-18 01:20:00,79.7,72.1,30.04,West,264,0.0,0.0,78,0.00,,,0.00,meteohub,2013-07-18 06:20:00,
2013-07-18 01:25:00,79.7,72.1,30.04,West,264,0.0,0.0,78,0.00,,,0.00,meteohub,2013-07-18 06:25:00,
2013-07-18 01:30:00,79.5,72.1,30.04,West,264,0.0,0.0,78,0.00,,,0.00,meteohub,2013-07-18 06:30:00,
2013-07-18 01:35:00,79.5,72.1,30.04,West,265,0.0,0.0,78,0.00,,,0.00,meteohub,2013-07-18 06:35:00,
2013-07-18 01:40:00,79.5,72.1,30.04,West,265,0.0,0.0,78,0.00,,,0.00,meteohub,2013-07-18 06:40:00,
2013-07-18 01:46:00,79.5,72.1,30.04,West,264,0.0,0.0,78,0.00,,,0.00,meteohub,2013-07-18 06:46:00,
2013-07-18 01:51:00,79.3,72.0,30.04,West,265,0.0,0.0,78,0.00,,,0.00,meteohub,2013-07-18 06:51:00,
2013-07-18 01:56:00,79.3,72.0,30.04,West,265,0.0,0.0,78,0.00,,,0.00,meteohub,2013-07-18 06:56:00,
2013-07-18 02:01:00,79.3,72.0,30.04,West,264,0.0,0.0,78,0.00,,,0.00,meteohub,2013-07-18 07:01:00,
2013-07-18 02:06:00,79.3,72.0,30.04,West,265,0.0,0.0,78,0.00,,,0.00,meteohub,2013-07-18 07:06:00,
2013-07-18 02:11:00,79.2,72.1,30.04,West,264,0.0,0.0,79,0.00,,,0.00,meteohub,2013-07-18 07:11:00,
2013-07-18 02:16:00,79.2,72.1,30.04,West,264,0.0,0.0,79,0.00,,,0.00,meteohub,2013-07-18 07:16:00,
2013-07-18 02:21:00,79.0,72.0,30.03,West,264,0.0,0.0,79,0.00,,,0.00,meteohub,2013-07-18 07:21:00,
2013-07-18 02:26:00,78.8,71.8,30.03,West,264,0.0,0.0,79,0.00,,,0.00,meteohub,2013-07-18 07:26:00,
2013-07-18 02:31:00,78.6,71.6,30.03,West,264,0.0,0.0,79,0.00,,,0.00,meteohub,2013-07-18 07:31:00,
2013-07-18 02:36:00,78.6,71.6,30.03,West,264,0.0,0.0,79,0.00,,,0.00,meteohub,2013-07-18 07:36:00,
2013-07-18 02:41:00,78.6,71.6,30.03,West,264,0.0,0.0,79,0.00,,,0.00,meteohub,2013-07-18 07:41:00,
2013-07-18 02:46:00,78.4,71.4,30.03,WSW,250,0.0,0.0,79,0.00,,,0.00,meteohub,2013-07-18 07:46:00,
2013-07-18 02:51:00,78.4,71.8,30.03,WSW,250,0.0,1.0,80,0.00,,,0.00,meteohub,2013-07-18 07:51:00,
2013-07-18 02:57:00,78.4,71.8,30.03,WSW,250,0.0,1.0,80,0.00,,,0.00,meteohub,2013-07-18 07:57:00,
2013-07-18 03:02:00,78.3,71.6,30.03,WSW,250,0.0,1.0,80,0.00,,,0.00,meteohub,2013-07-18 08:02:00,
2013-07-18 03:07:00,78.3,71.6,30.03,WSW,249,0.0,0.0,80,0.00,,,0.00,meteohub,2013-07-18 08:07:00,
2013-07-18 03:12:00,78.3,71.6,30.03,WSW,250,0.0,0.0,80,0.00,,,0.00,meteohub,2013-07-18 08:12:00,
2013-07-18 03:17:00,78.3,71.6,30.03,WSW,249,0.0,0.0,80,0.00,,,0.00,meteohub,2013-07-18 08:17:00,
2013-07-18 03:22:00,78.1,71.4,30.03,WSW,249,0.0,0.0,80,0.00,,,0.00,meteohub,2013-07-18 08:22:00,
2013-07-18 03:27:00,78.1,71.4,30.03,WSW,250,0.0,0.0,80,0.00,,,0.00,meteohub,2013-07-18 08:27:00,
2013-07-18 03:32:00,77.9,71.2,30.03,WSW,250,0.0,0.0,80,0.00,,,0.00,meteohub,2013-07-18 08:32:00,
2013-07-18 03:37:00,77.9,71.2,30.02,WSW,250,0.0,0.0,80,0.00,,,0.00,meteohub,2013-07-18 08:37:00,
2013-07-18 03:42:00,77.7,71.1,30.02,WSW,249,0.0,0.0,80,0.00,,,0.00,meteohub,2013-07-18 08:42:00,
2013-07-18 03:47:00,77.7,71.1,30.02,WSW,250,0.0,0.0,80,0.00,,,0.00,meteohub,2013-07-18 08:47:00,
2013-07-18 03:52:00,77.5,70.9,30.02,WSW,250,0.0,0.0,80,0.00,,,0.00,meteohub,2013-07-18 08:52:00,
2013-07-18 03:57:00,77.5,70.9,30.02,WSW,249,0.0,0.0,80,0.00,,,0.00,meteohub,2013-07-18 08:57:00,
2013-07-18 04:02:00,77.5,70.9,30.02,WSW,249,0.0,0.0,80,0.00,,,0.00,meteohub,2013-07-18 09:02:00,
2013-07-18 04:07:00,77.4,70.7,30.02,WSW,250,0.0,0.0,80,0.00,,,0.00,meteohub,2013-07-18 09:07:00,
2013-07-18 04:12:00,77.4,70.7,30.01,WSW,250,0.0,0.0,80,0.00,,,0.00,meteohub,2013-07-18 09:12:00,
2013-07-18 04:17:00,77.4,71.1,30.01,WSW,249,0.0,0.0,81,0.00,,,0.00,meteohub,2013-07-18 09:17:00,
2013-07-18 04:22:00,77.2,70.9,30.01,WSW,250,0.0,0.0,81,0.00,,,0.00,meteohub,2013-07-18 09:22:00,
2013-07-18 04:27:00,77.2,70.9,30.01,WSW,250,0.0,0.0,81,0.00,,,0.00,meteohub,2013-07-18 09:27:00,
2013-07-18 04:32:00,77.2,70.9,30.01,WSW,249,0.0,0.0,81,0.00,,,0.00,meteohub,2013-07-18 09:32:00,
2013-07-18 04:37:00,77.0,70.7,30.01,WSW,249,0.0,0.0,81,0.00,,,0.00,meteohub,2013-07-18 09:37:00,
2013-07-18 04:42:00,76.8,70.5,30.01,WSW,248,0.0,0.0,81,0.00,,,0.00,meteohub,2013-07-18 09:42:00,
2013-07-18 04:47:00,76.6,70.7,30.01,WSW,248,0.0,2.0,82,0.00,,,0.00,meteohub,2013-07-18 09:47:00,
2013-07-18 04:52:00,76.6,70.7,30.00,WSW,248,0.0,2.0,82,0.00,,,0.00,meteohub,2013-07-18 09:52:00,
2013-07-18 04:57:00,76.6,70.7,30.00,WSW,248,0.0,0.0,82,0.00,,,0.00,meteohub,2013-07-18 09:57:00,
2013-07-18 05:02:00,76.5,70.5,30.00,WSW,248,0.0,0.0,82,0.00,,,0.00,meteohub,2013-07-18 10:02:00,
2013-07-18 05:07:00,76.5,70.5,30.00,WSW,248,0.0,0.0,82,0.00,,,0.00,meteohub,2013-07-18 10:07:00,
2013-07-18 05:12:00,76.5,70.5,30.00,WSW,248,0.0,0.0,82,0.00,,,0.00,meteohub,2013-07-18 10:12:00,
2013-07-18 05:17:00,76.5,70.5,30.00,WSW,248,0.0,0.0,82,0.00,,,0.00,meteohub,2013-07-18 10:17:00,
2013-07-18 05:22:00,76.5,70.5,30.00,WSW,248,0.0,0.0,82,0.00,,,0.00,meteohub,2013-07-18 10:22:00,
2013-07-18 05:27:00,76.5,70.5,30.00,WSW,248,0.0,0.0,82,0.00,,,0.00,meteohub,2013-07-18 10:27:00,
2013-07-18 05:32:00,76.5,70.5,30.00,WSW,248,0.0,0.0,82,0.00,,,0.00,meteohub,2013-07-18 10:32:00,
2013-07-18 05:37:00,76.5,70.5,30.00,WSW,248,0.0,0.0,82,0.00,,,0.00,meteohub,2013-07-18 10:37:00,
2013-07-18 05:42:00,76.5,70.9,30.00,WSW,248,0.0,0.0,83,0.00,,,0.00,meteohub,2013-07-18 10:42:00,
2013-07-18 05:47:00,76.5,70.9,30.00,WSW,248,0.0,0.0,83,0.00,,,0.00,meteohub,2013-07-18 10:47:00,
2013-07-18 05:53:00,76.5,70.9,30.00,WSW,248,0.0,0.0,83,0.00,,,0.00,meteohub,2013-07-18 10:53:00,
2013-07-18 05:58:00,76.5,70.5,29.99,WSW,248,0.0,0.0,82,0.00,,,0.00,meteohub,2013-07-18 10:58:00,
2013-07-18 06:03:00,76.5,70.5,29.99,WSW,248,0.0,0.0,82,0.00,,,0.00,meteohub,2013-07-18 11:03:00,
2013-07-18 06:08:00,76.5,70.5,29.99,WSW,248,0.0,0.0,82,0.00,,,0.00,meteohub,2013-07-18 11:08:00,
2013-07-18 06:13:00,76.5,70.5,29.99,WNW,282,0.0,0.0,82,0.00,,,0.00,meteohub,2013-07-18 11:13:00,
2013-07-18 06:18:00,76.5,70.5,29.99,WSW,249,0.0,0.0,82,0.00,,,0.00,meteohub,2013-07-18 11:18:00,
2013-07-18 06:23:00,76.6,70.7,29.99,WNW,294,0.0,4.0,82,0.00,,,0.00,meteohub,2013-07-18 11:23:00,
2013-07-18 06:28:00,76.6,70.7,29.99,West,279,0.0,4.0,82,0.00,,,0.00,meteohub,2013-07-18 11:28:00,
2013-07-18 06:33:00,76.8,70.9,29.99,West,263,0.0,1.0,82,0.00,,,0.00,meteohub,2013-07-18 11:33:00,
2013-07-18 06:38:00,76.8,70.9,29.99,West,263,0.0,1.0,82,0.00,,,0.00,meteohub,2013-07-18 11:38:00,
2013-07-18 06:43:00,77.0,71.1,29.99,West,261,0.0,1.0,82,0.00,,,0.00,meteohub,2013-07-18 11:43:00,
2013-07-18 06:48:00,77.2,71.2,29.99,West,260,0.0,0.0,82,0.00,,,0.00,meteohub,2013-07-18 11:48:00,
2013-07-18 06:54:00,77.2,71.2,29.99,West,269,0.0,1.0,82,0.00,,,0.00,meteohub,2013-07-18 11:54:00,
2013-07-18 06:59:00,77.4,71.4,29.99,WSW,246,2.0,2.0,82,0.00,,,0.00,meteohub,2013-07-18 11:59:00,
2013-07-18 07:04:00,77.4,71.1,29.99,WSW,246,0.0,3.0,81,0.00,,,0.00,meteohub,2013-07-18 12:04:00,
2013-07-18 07:09:00,77.5,71.2,29.98,WNW,284,0.0,3.0,81,0.00,,,0.00,meteohub,2013-07-18 12:09:00,
2013-07-18 07:14:00,77.7,71.4,29.98,WSW,253,0.0,3.0,81,0.00,,,0.00,meteohub,2013-07-18 12:14:00,
2013-07-18 07:19:00,77.9,71.6,29.98,WSW,250,0.0,3.0,81,0.00,,,0.00,meteohub,2013-07-18 12:19:00,
2013-07-18 07:24:00,78.3,72.0,29.98,WSW,250,0.0,3.0,81,0.00,,,0.00,meteohub,2013-07-18 12:24:00,
2013-07-18 07:29:00,78.4,72.1,29.98,WSW,249,0.0,3.0,81,0.00,,,0.00,meteohub,2013-07-18 12:29:00,
2013-07-18 07:34:00,78.6,72.0,29.98,WSW,252,0.0,3.0,80,0.00,,,0.00,meteohub,2013-07-18 12:34:00,
2013-07-18 07:39:00,79.0,72.0,29.98,WSW,258,0.0,2.0,79,0.00,,,0.00,meteohub,2013-07-18 12:39:00,
2013-07-18 07:44:00,79.3,72.3,29.97,WSW,244,1.0,3.0,79,0.00,,,0.00,meteohub,2013-07-18 12:44:00,
2013-07-18 07:49:00,79.7,72.1,29.97,WNW,290,0.0,3.0,78,0.00,,,0.00,meteohub,2013-07-18 12:49:00,
2013-07-18 07:54:00,80.1,72.1,29.97,NNE,13,0.0,3.0,77,0.00,,,0.00,meteohub,2013-07-18 12:54:00,
2013-07-18 08:00:00,80.2,72.3,29.97,North,10,0.0,3.0,77,0.00,,,0.00,meteohub,2013-07-18 13:00:00,
2013-07-18 08:05:00,80.8,72.5,29.97,North,5,0.0,3.0,76,0.00,,,0.00,meteohub,2013-07-18 13:05:00,
2013-07-18 08:10:00,81.1,73.2,29.97,North,5,0.0,1.0,77,0.00,,,0.00,meteohub,2013-07-18 13:10:00,
2013-07-18 08:15:00,81.3,72.7,29.96,WNW,292,0.0,4.0,75,0.00,,,0.00,meteohub,2013-07-18 13:15:00,
2013-07-18 08:20:00,81.7,72.5,29.97,West,269,0.0,4.0,74,0.00,,,0.00,meteohub,2013-07-18 13:20:00,
2013-07-18 08:25:00,81.9,72.3,29.96,WNW,300,0.0,4.0,73,0.00,,,0.00,meteohub,2013-07-18 13:25:00,
2013-07-18 08:30:00,82.0,72.5,29.96,West,271,0.0,4.0,73,0.00,,,0.00,meteohub,2013-07-18 13:30:00,
2013-07-18 08:35:00,82.6,73.0,29.96,WSW,257,0.0,4.0,73,0.00,,,0.00,meteohub,2013-07-18 13:35:00,
2013-07-18 08:40:00,82.8,72.9,29.96,West,269,1.0,3.0,72,0.00,,,0.00,meteohub,2013-07-18 13:40:00,
2013-07-18 08:45:00,82.8,72.9,29.96,SSE,161,0.0,3.0,72,0.00,,,0.00,meteohub,2013-07-18 13:45:00,
2013-07-18 08:50:00,82.9,73.0,29.96,West,261,0.0,3.0,72,0.00,,,0.00,meteohub,2013-07-18 13:50:00,
2013-07-18 08:55:00,82.9,73.0,29.96,ENE,63,0.0,2.0,72,0.00,,,0.00,meteohub,2013-07-18 13:55:00,
2013-07-18 09:00:00,82.9,73.0,29.96,West,265,0.0,2.0,72,0.00,,,0.00,meteohub,2013-07-18 14:00:00,
2013-07-18 09:06:00,82.9,73.0,29.96,West,262,0.0,2.0,72,0.00,,,0.00,meteohub,2013-07-18 14:06:00,
2013-07-18 09:11:00,82.9,73.0,29.96,WSW,251,0.0,2.0,72,0.00,,,0.00,meteohub,2013-07-18 14:11:00,
2013-07-18 09:16:00,82.9,73.0,29.96,WSW,249,0.0,2.0,72,0.00,,,0.00,meteohub,2013-07-18 14:16:00,
2013-07-18 09:21:00,82.9,72.5,29.96,West,260,0.0,3.0,71,0.00,,,0.00,meteohub,2013-07-18 14:21:00,
2013-07-18 09:26:00,82.9,72.5,29.95,SSE,161,0.0,5.0,71,0.00,,,0.00,meteohub,2013-07-18 14:26:00,
2013-07-18 09:31:00,82.9,73.0,29.95,West,267,0.0,5.0,72,0.00,,,0.00,meteohub,2013-07-18 14:31:00,
2013-07-18 09:36:00,83.1,73.2,29.95,West,277,0.0,5.0,72,0.00,,,0.00,meteohub,2013-07-18 14:36:00,
2013-07-18 09:41:00,83.1,73.2,29.95,WSW,253,1.0,3.0,72,0.00,,,0.00,meteohub,2013-07-18 14:41:00,
2013-07-18 09:46:00,83.1,73.2,29.95,West,261,0.0,5.0,72,0.00,,,0.00,meteohub,2013-07-18 14:46:00,
2013-07-18 09:51:00,83.3,73.4,29.95,WSW,246,0.0,5.0,72,0.00,,,0.00,meteohub,2013-07-18 14:51:00,
2013-07-18 09:56:00,83.5,73.6,29.94,SW,236,0.0,5.0,72,0.00,,,0.00,meteohub,2013-07-18 14:56:00,
2013-07-18 10:01:00,83.7,73.2,29.94,WSW,256,0.0,5.0,71,0.00,,,0.00,meteohub,2013-07-18 15:01:00,
2013-07-18 10:06:00,83.7,73.2,29.94,WSW,248,1.0,7.0,71,0.00,,,0.00,meteohub,2013-07-18 15:06:00,
2013-07-18 10:12:00,83.8,73.4,29.94,WSW,253,0.0,7.0,71,0.00,,,0.00,meteohub,2013-07-18 15:12:00,
2013-07-18 10:17:00,84.0,73.6,29.94,WSW,246,0.0,7.0,71,0.00,,,0.00,meteohub,2013-07-18 15:17:00,
2013-07-18 10:22:00,84.0,73.2,29.93,WSW,255,0.0,6.0,70,0.00,,,0.00,meteohub,2013-07-18 15:22:00,
2013-07-18 10:27:00,84.4,73.0,29.93,West,268,0.0,11.0,69,0.00,,,0.00,meteohub,2013-07-18 15:27:00,
2013-07-18 10:32:00,84.6,73.8,29.93,WSW,256,0.0,11.0,70,0.00,,,0.00,meteohub,2013-07-18 15:32:00,
2013-07-18 10:37:00,84.7,73.9,29.93,WSW,258,0.0,11.0,70,0.00,,,0.00,meteohub,2013-07-18 15:37:00,
2013-07-18 10:42:00,84.9,73.6,29.93,North,5,0.0,5.0,69,0.00,,,0.00,meteohub,2013-07-18 15:42:00,
2013-07-18 10:47:00,85.1,73.8,29.93,NW,307,3.0,7.0,69,0.00,,,0.00,meteohub,2013-07-18 15:47:00,
2013-07-18 10:52:00,85.3,73.9,29.92,West,263,0.0,7.0,69,0.00,,,0.00,meteohub,2013-07-18 15:52:00,
2013-07-18 10:57:00,85.5,73.8,29.92,West,263,0.0,7.0,68,0.00,,,0.00,meteohub,2013-07-18 15:57:00,
2013-07-18 11:02:00,85.8,73.9,29.92,NW,326,1.0,6.0,68,0.00,,,0.00,meteohub,2013-07-18 16:02:00,
2013-07-18 11:07:00,86.0,73.8,29.92,West,261,2.0,6.0,67,0.00,,,0.00,meteohub,2013-07-18 16:07:00,
2013-07-18 11:12:00,86.2,73.4,29.92,WSW,243,0.0,12.0,66,0.00,,,0.00,meteohub,2013-07-18 16:12:00,
2013-07-18 11:17:00,86.4,73.2,29.92,WSW,251,0.0,12.0,65,0.00,,,0.00,meteohub,2013-07-18 16:17:00,
2013-07-18 11:22:00,86.5,73.4,29.91,WSW,257,0.0,12.0,65,0.00,,,0.00,meteohub,2013-07-18 16:22:00,
2013-07-18 11:27:00,86.7,73.6,29.91,WSW,253,0.0,13.0,65,0.00,,,0.00,meteohub,2013-07-18 16:27:00,
2013-07-18 11:32:00,86.9,73.8,29.91,West,269,2.0,13.0,65,0.00,,,0.00,meteohub,2013-07-18 16:32:00,
2013-07-18 11:37:00,87.1,73.9,29.91,NNE,15,0.0,6.0,65,0.00,,,0.00,meteohub,2013-07-18 16:37:00,
2013-07-18 11:42:00,87.3,74.1,29.91,West,265,1.0,6.0,65,0.00,,,0.00,meteohub,2013-07-18 16:42:00,
2013-07-18 11:47:00,87.4,73.8,29.91,West,279,0.0,6.0,64,0.00,,,0.00,meteohub,2013-07-18 16:47:00,
2013-07-18 11:52:00,87.6,73.9,29.91,WSW,246,0.0,10.0,64,0.00,,,0.00,meteohub,2013-07-18 16:52:00,
2013-07-18 11:57:00,88.0,74.3,29.91,West,275,2.0,10.0,64,0.00,,,0.00,meteohub,2013-07-18 16:57:00,
2013-07-18 12:02:00,88.0,73.4,29.91,WSW,258,0.0,10.0,62,0.00,,,0.00,meteohub,2013-07-18 17:02:00,
2013-07-18 12:07:00,88.2,73.9,29.91,WSW,248,0.0,6.0,63,0.00,,,0.00,meteohub,2013-07-18 17:07:00,
2013-07-18 12:12:00,88.3,74.1,29.90,WSW,257,0.0,5.0,63,0.00,,,0.00,meteohub,2013-07-18 17:12:00,
2013-07-18 12:17:00,88.5,74.3,29.90,WSW,254,2.0,7.0,63,0.00,,,0.00,meteohub,2013-07-18 17:17:00,
2013-07-18 12:22:00,88.9,74.1,29.90,WSW,244,0.0,7.0,62,0.00,,,0.00,meteohub,2013-07-18 17:22:00,
2013-07-18 12:27:00,89.1,74.3,29.90,WSW,254,1.0,7.0,62,0.00,,,0.00,meteohub,2013-07-18 17:27:00,
2013-07-18 12:32:00,89.1,73.4,29.89,WSW,242,0.0,10.0,60,0.00,,,0.00,meteohub,2013-07-18 17:32:00,
2013-07-18 12:37:00,89.2,73.6,29.89,WSW,246,1.0,10.0,60,0.00,,,0.00,meteohub,2013-07-18 17:37:00,
2013-07-18 12:42:00,89.4,73.8,29.89,North,5,3.0,15.0,60,0.00,,,0.00,meteohub,2013-07-18 17:42:00,
2013-07-18 12:47:00,89.8,74.1,29.89,SW,236,4.0,15.0,60,0.00,,,0.00,meteohub,2013-07-18 17:47:00,
2013-07-18 12:52:00,90.0,74.1,29.89,WSW,250,1.0,15.0,60,0.00,,,0.00,meteohub,2013-07-18 17:52:00,
2013-07-18 12:57:00,90.1,74.3,29.89,NW,315,0.0,7.0,60,0.00,,,0.00,meteohub,2013-07-18 17:57:00,
2013-07-18 13:02:00,90.3,74.1,29.88,WSW,252,12.0,12.0,59,0.00,,,0.00,meteohub,2013-07-18 18:02:00,
2013-07-18 13:07:00,90.7,73.9,29.88,SSE,168,0.0,12.0,58,0.00,,,0.00,meteohub,2013-07-18 18:07:00,
2013-07-18 13:12:00,90.9,73.6,29.88,WSW,257,0.0,12.0,57,0.00,,,0.00,meteohub,2013-07-18 18:12:00,
2013-07-18 13:17:00,91.2,73.8,29.88,SW,230,0.0,12.0,57,0.00,,,0.00,meteohub,2013-07-18 18:17:00,
2013-07-18 13:22:00,91.6,74.1,29.88,West,273,2.0,11.0,57,0.00,,,0.00,meteohub,2013-07-18 18:22:00,
2013-07-18 13:27:00,91.8,74.3,29.87,NW,317,0.0,11.0,57,0.00,,,0.00,meteohub,2013-07-18 18:27:00,
2013-07-18 13:32:00,92.1,74.1,29.87,West,272,1.0,11.0,56,0.00,,,0.00,meteohub,2013-07-18 18:32:00,
2013-07-18 13:37:00,92.5,75.0,29.87,SSW,209,2.0,9.0,57,0.00,,,0.00,meteohub,2013-07-18 18:37:00,
2013-07-18 13:42:00,92.7,74.1,29.87,West,271,1.0,14.0,55,0.00,,,0.00,meteohub,2013-07-18 18:42:00,
2013-07-18 13:47:00,92.8,74.3,29.86,SW,217,0.0,14.0,55,0.00,,,0.00,meteohub,2013-07-18 18:47:00,
2013-07-18 13:52:00,93.0,74.5,29.86,WSW,257,1.0,14.0,55,0.00,,,0.00,meteohub,2013-07-18 18:52:00,
2013-07-18 13:57:00,93.2,73.6,29.86,WSW,250,3.0,11.0,53,0.00,,,0.00,meteohub,2013-07-18 18:57:00,
2013-07-18 14:02:00,93.2,73.6,29.86,West,269,0.0,7.0,53,0.00,,,0.00,meteohub,2013-07-18 19:02:00,
2013-07-18 14:07:00,93.4,73.8,29.86,WSW,241,5.0,7.0,53,0.00,,,0.00,meteohub,2013-07-18 19:07:00,
2013-07-18 14:13:00,93.6,73.8,29.86,WSW,247,0.0,7.0,53,0.00,,,0.00,meteohub,2013-07-18 19:13:00,
2013-07-18 14:18:00,93.6,73.8,29.85,West,263,6.0,7.0,53,0.00,,,0.00,meteohub,2013-07-18 19:18:00,
2013-07-18 14:23:00,93.6,73.8,29.85,West,259,0.0,10.0,53,0.00,,,0.00,meteohub,2013-07-18 19:23:00,
2013-07-18 14:28:00,93.7,74.7,29.85,West,262,0.0,12.0,54,0.00,,,0.00,meteohub,2013-07-18 19:28:00,
2013-07-18 14:33:00,93.7,73.4,29.85,WSW,247,0.0,12.0,52,0.00,,,0.00,meteohub,2013-07-18 19:33:00,
2013-07-18 14:38:00,93.7,73.4,29.85,West,263,0.0,14.0,52,0.00,,,0.00,meteohub,2013-07-18 19:38:00,
2013-07-18 14:43:00,93.7,74.7,29.84,SW,234,1.0,14.0,54,0.00,,,0.00,meteohub,2013-07-18 19:43:00,
2013-07-18 14:48:00,93.6,75.0,29.84,West,259,1.0,14.0,55,0.00,,,0.00,meteohub,2013-07-18 19:48:00,
2013-07-18 14:53:00,93.7,74.7,29.84,WSW,254,3.0,10.0,54,0.00,,,0.00,meteohub,2013-07-18 19:53:00,
2013-07-18 14:58:00,93.7,74.7,29.84,WSW,248,0.0,12.0,54,0.00,,,0.00,meteohub,2013-07-18 19:58:00,
2013-07-18 15:03:00,93.9,74.7,29.83,WSW,244,0.0,12.0,54,0.00,,,0.00,meteohub,2013-07-18 20:03:00,
2013-07-18 15:08:00,93.9,74.1,29.83,WSW,257,3.0,12.0,53,0.00,,,0.00,meteohub,2013-07-18 20:08:00,
2013-07-18 15:14:00,94.1,74.8,29.83,WSW,246,0.0,10.0,54,0.00,,,0.00,meteohub,2013-07-18 20:14:00,
2013-07-18 15:19:00,94.1,73.8,29.83,SW,236,0.0,10.0,52,0.00,,,0.00,meteohub,2013-07-18 20:19:00,
2013-07-18 15:24:00,94.1,73.8,29.83,WNW,283,7.0,9.0,52,0.00,,,0.00,meteohub,2013-07-18 20:24:00,
2013-07-18 15:29:00,93.9,73.6,29.82,West,277,6.0,9.0,52,0.00,,,0.00,meteohub,2013-07-18 20:29:00,
2013-07-18 15:34:00,93.9,73.6,29.82,WNW,282,3.0,12.0,52,0.00,,,0.00,meteohub,2013-07-18 20:34:00,
2013-07-18 15:39:00,93.7,72.9,29.82,NW,319,10.0,13.0,51,0.00,,,0.00,meteohub,2013-07-18 20:39:00,
2013-07-18 15:44:00,93.6,73.2,29.82,WNW,296,3.0,13.0,52,0.00,,,0.00,meteohub,2013-07-18 20:44:00,
2013-07-18 15:49:00,93.6,73.2,29.81,West,276,5.0,14.0,52,0.00,,,0.00,meteohub,2013-07-18 20:49:00,
2013-07-18 15:54:00,93.7,73.9,29.81,WNW,291,2.0,14.0,53,0.00,,,0.00,meteohub,2013-07-18 20:54:00,
2013-07-18 15:59:00,93.7,72.9,29.81,NNW,336,5.0,12.0,51,0.00,,,0.00,meteohub,2013-07-18 20:59:00,
2013-07-18 16:04:00,93.7,72.9,29.81,SSW,211,1.0,12.0,51,0.00,,,0.00,meteohub,2013-07-18 21:04:00,
2013-07-18 16:09:00,93.7,72.9,29.81,WSW,243,0.0,10.0,51,0.00,,,0.00,meteohub,2013-07-18 21:09:00,
2013-07-18 16:15:00,93.7,72.9,29.81,NNE,17,0.0,12.0,51,0.00,,,0.00,meteohub,2013-07-18 21:15:00,
2013-07-18 16:20:00,93.9,73.0,29.80,WNW,288,0.0,12.0,51,0.00,,,0.00,meteohub,2013-07-18 21:20:00,
2013-07-18 16:25:00,94.1,72.7,29.80,WSW,244,0.0,11.0,50,0.00,,,0.00,meteohub,2013-07-18 21:25:00,
2013-07-18 16:30:00,94.1,72.7,29.80,NNW,344,3.0,11.0,50,0.00,,,0.00,meteohub,2013-07-18 21:30:00,
2013-07-18 16:35:00,93.9,71.8,29.80,WSW,244,4.0,11.0,49,0.00,,,0.00,meteohub,2013-07-18 21:35:00,
2013-07-18 16:40:00,93.9,72.5,29.79,WSW,244,0.0,11.0,50,0.00,,,0.00,meteohub,2013-07-18 21:40:00,
2013-07-18 16:45:00,93.7,71.6,29.79,West,275,2.0,11.0,49,0.00,,,0.00,meteohub,2013-07-18 21:45:00,
2013-07-18 16:50:00,93.7,71.6,29.79,West,276,4.0,10.0,49,0.00,,,0.00,meteohub,2013-07-18 21:50:00,
2013-07-18 16:55:00,93.7,71.6,29.78,WSW,244,2.0,10.0,49,0.00,,,0.00,meteohub,2013-07-18 21:55:00,
2013-07-18 17:00:00,93.7,71.6,29.78,West,273,6.0,10.0,49,0.00,,,0.00,meteohub,2013-07-18 22:00:00,
2013-07-18 17:05:00,93.7,72.3,29.78,WSW,243,1.0,10.0,50,0.00,,,0.00,meteohub,2013-07-18 22:05:00,
2013-07-18 17:10:00,93.6,71.6,29.78,WSW,255,0.0,11.0,49,0.00,,,0.00,meteohub,2013-07-18 22:10:00,
2013-07-18 17:15:00,93.4,72.0,29.78,WSW,250,1.0,13.0,50,0.00,,,0.00,meteohub,2013-07-18 22:15:00,
2013-07-18 17:21:00,93.2,72.3,29.78,NNW,332,6.0,13.0,51,0.00,,,0.00,meteohub,2013-07-18 22:21:00,
2013-07-18 17:26:00,93.4,72.0,29.78,WNW,300,3.0,11.0,50,0.00,,,0.00,meteohub,2013-07-18 22:26:00,
2013-07-18 17:31:00,93.4,72.5,29.78,WNW,303,0.0,11.0,51,0.00,,,0.00,meteohub,2013-07-18 22:31:00,
2013-07-18 17:36:00,93.4,72.5,29.77,West,277,0.0,10.0,51,0.00,,,0.00,meteohub,2013-07-18 22:36:00,
2013-07-18 17:41:00,93.0,72.1,29.77,WSW,248,1.0,7.0,51,0.00,,,0.00,meteohub,2013-07-18 22:41:00,
2013-07-18 17:46:00,92.8,73.2,29.77,WSW,256,0.0,10.0,53,0.00,,,0.00,meteohub,2013-07-18 22:46:00,
2013-07-18 17:51:00,92.7,73.0,29.77,West,271,0.0,10.0,53,0.00,,,0.00,meteohub,2013-07-18 22:51:00,
2013-07-18 17:56:00,92.5,73.4,29.76,WSW,249,1.0,10.0,54,0.00,,,0.00,meteohub,2013-07-18 22:56:00,
2013-07-18 18:01:00,92.5,72.9,29.77,WSW,253,0.0,7.0,53,0.00,,,0.00,meteohub,2013-07-18 23:01:00,
2013-07-18 18:06:00,92.5,72.9,29.76,NW,313,0.0,7.0,53,0.00,,,0.00,meteohub,2013-07-18 23:06:00,
2013-07-18 18:11:00,92.1,73.0,29.76,West,277,0.0,9.0,54,0.00,,,0.00,meteohub,2013-07-18 23:11:00,
2013-07-18 18:16:00,91.9,72.3,29.76,West,263,1.0,9.0,53,0.00,,,0.00,meteohub,2013-07-18 23:16:00,
2013-07-18 18:21:00,91.8,72.7,29.76,West,261,0.0,8.0,54,0.00,,,0.00,meteohub,2013-07-18 23:21:00,
2013-07-18 18:27:00,91.6,72.5,29.75,WSW,246,0.0,7.0,54,0.00,,,0.00,meteohub,2013-07-18 23:27:00,
2013-07-18 18:32:00,91.2,72.9,29.75,West,259,0.0,7.0,55,0.00,,,0.00,meteohub,2013-07-18 23:32:00,
2013-07-18 18:37:00,91.0,72.7,29.75,WSW,241,4.0,7.0,55,0.00,,,0.00,meteohub,2013-07-18 23:37:00,
2013-07-18 18:42:00,91.0,73.2,29.75,WNW,285,5.0,7.0,56,0.00,,,0.00,meteohub,2013-07-18 23:42:00,
2013-07-18 18:47:00,90.9,73.0,29.75,West,275,2.0,9.0,56,0.00,,,0.00,meteohub,2013-07-18 23:47:00,
2013-07-18 18:52:00,90.7,72.9,29.75,West,281,3.0,9.0,56,0.00,,,0.00,meteohub,2013-07-18 23:52:00,
2013-07-18 18:57:00,90.3,73.0,29.75,SSW,193,0.0,13.0,57,0.00,,,0.00,meteohub,2013-07-18 23:57:00,
2013-07-18 19:02:00,90.3,73.0,29.75,WSW,251,3.0,13.0,57,0.00,,,0.00,meteohub,2013-07-19 00:02:00,
2013-07-18 19:07:00,90.1,72.9,29.75,WNW,290,0.0,6.0,57,0.00,,,0.00,meteohub,2013-07-19 00:07:00,
2013-07-18 19:12:00,90.0,72.7,29.75,WSW,241,3.0,10.0,57,0.00,,,0.00,meteohub,2013-07-19 00:12:00,
2013-07-18 19:17:00,89.8,73.0,29.74,WNW,290,0.0,10.0,58,0.00,,,0.00,meteohub,2013-07-19 00:17:00,
2013-07-18 19:22:00,89.8,73.0,29.74,SW,217,0.0,10.0,58,0.00,,,0.00,meteohub,2013-07-19 00:22:00,
2013-07-18 19:27:00,89.6,72.9,29.74,West,269,0.0,6.0,58,0.00,,,0.00,meteohub,2013-07-19 00:27:00,
2013-07-18 19:32:00,89.4,72.7,29.74,West,260,1.0,6.0,58,0.00,,,0.00,meteohub,2013-07-19 00:32:00,
2013-07-18 19:37:00,89.4,73.2,29.74,WNW,284,0.0,3.0,59,0.00,,,0.00,meteohub,2013-07-19 00:37:00,
2013-07-18 19:42:00,89.2,73.0,29.73,NNW,339,0.0,3.0,59,0.00,,,0.00,meteohub,2013-07-19 00:42:00,
2013-07-18 19:47:00,89.1,72.9,29.73,WNW,302,0.0,3.0,59,0.00,,,0.00,meteohub,2013-07-19 00:47:00,
2013-07-18 19:52:00,89.1,72.9,29.73,West,267,0.0,5.0,59,0.00,,,0.00,meteohub,2013-07-19 00:52:00,
2013-07-18 19:57:00,88.9,72.7,29.73,West,263,0.0,5.0,59,0.00,,,0.00,meteohub,2013-07-19 00:57:00,
2013-07-18 20:02:00,88.9,73.2,29.73,West,275,0.0,5.0,60,0.00,,,0.00,meteohub,2013-07-19 01:02:00,
2013-07-18 20:07:00,88.5,72.9,29.73,West,259,0.0,8.0,60,0.00,,,0.00,meteohub,2013-07-19 01:07:00,
2013-07-18 20:12:00,88.3,72.7,29.73,WNW,288,0.0,8.0,60,0.00,,,0.00,meteohub,2013-07-19 01:12:00,
2013-07-18 20:17:00,88.3,73.2,29.73,WNW,284,0.0,8.0,61,0.00,,,0.00,meteohub,2013-07-19 01:17:00,
2013-07-18 20:22:00,88.2,73.0,29.73,West,261,0.0,7.0,61,0.00,,,0.00,meteohub,2013-07-19 01:22:00,
2013-07-18 20:27:00,88.0,72.9,29.73,WSW,250,0.0,6.0,61,0.00,,,0.00,meteohub,2013-07-19 01:27:00,
2013-07-18 20:32:00,87.8,72.7,29.73,West,267,0.0,5.0,61,0.00,,,0.00,meteohub,2013-07-19 01:32:00,
2013-07-18 20:37:00,87.6,72.5,29.73,West,267,0.0,5.0,61,0.00,,,0.00,meteohub,2013-07-19 01:37:00,
2013-07-18 20:42:00,87.4,72.3,29.73,WSW,255,0.0,5.0,61,0.00,,,0.00,meteohub,2013-07-19 01:42:00,
2013-07-18 20:47:00,87.4,72.3,29.73,SW,222,0.0,3.0,61,0.00,,,0.00,meteohub,2013-07-19 01:47:00,
2013-07-18 20:52:00,87.3,72.1,29.72,WNW,284,0.0,5.0,61,0.00,,,0.00,meteohub,2013-07-19 01:52:00,
2013-07-18 20:57:00,87.1,72.0,29.72,West,261,0.0,5.0,61,0.00,,,0.00,meteohub,2013-07-19 01:57:00,
2013-07-18 21:02:00,87.1,72.0,29.72,West,261,0.0,5.0,61,0.00,,,0.00,meteohub,2013-07-19 02:02:00,
2013-07-18 21:07:00,86.9,72.3,29.73,WNW,284,0.0,5.0,62,0.00,,,0.00,meteohub,2013-07-19 02:07:00,
2013-07-18 21:12:00,86.7,72.1,29.73,West,263,3.0,4.0,62,0.00,,,0.00,meteohub,2013-07-19 02:12:00,
2013-07-18 21:17:00,86.7,72.1,29.73,WNW,290,3.0,5.0,62,0.00,,,0.00,meteohub,2013-07-19 02:17:00,
2013-07-18 21:22:00,86.5,72.0,29.73,WNW,283,0.0,5.0,62,0.00,,,0.00,meteohub,2013-07-19 02:22:00,
2013-07-18 21:27:00,86.5,72.0,29.73,WSW,249,0.0,7.0,62,0.00,,,0.00,meteohub,2013-07-19 02:27:00,
2013-07-18 21:32:00,86.4,71.8,29.73,WSW,255,0.0,10.0,62,0.00,,,0.00,meteohub,2013-07-19 02:32:00,
2013-07-18 21:37:00,86.2,71.6,29.73,West,272,2.0,10.0,62,0.00,,,0.00,meteohub,2013-07-19 02:37:00,
2013-07-18 21:42:00,86.2,71.1,29.73,WNW,301,1.0,10.0,61,0.00,,,0.00,meteohub,2013-07-19 02:42:00,
2013-07-18 21:47:00,86.2,71.1,29.73,SW,227,0.0,6.0,61,0.00,,,0.00,meteohub,2013-07-19 02:47:00,
2013-07-18 21:52:00,86.0,71.1,29.73,North,351,0.0,6.0,61,0.00,,,0.00,meteohub,2013-07-19 02:52:00,
2013-07-18 21:57:00,86.0,71.1,29.73,West,263,0.0,9.0,61,0.00,,,0.00,meteohub,2013-07-19 02:57:00,
2013-07-18 22:02:00,85.8,70.9,29.73,WSW,251,0.0,9.0,61,0.00,,,0.00,meteohub,2013-07-19 03:02:00,
2013-07-18 22:06:00,85.8,70.9,29.73,West,262,0.0,9.0,61,0.00,,,0.00,meteohub,2013-07-19 03:06:00,
2013-07-18 22:11:00,85.8,70.9,29.73,West,265,0.0,4.0,61,0.00,,,0.00,meteohub,2013-07-19 03:11:00,
2013-07-18 22:16:00,85.6,71.1,29.73,West,263,0.0,4.0,62,0.00,,,0.00,meteohub,2013-07-19 03:16:00,
2013-07-18 22:21:00,85.6,71.1,29.73,West,277,0.0,4.0,62,0.00,,,0.00,meteohub,2013-07-19 03:21:00,
2013-07-18 22:26:00,85.6,71.1,29.73,WNW,287,0.0,5.0,62,0.00,,,0.00,meteohub,2013-07-19 03:26:00,
2013-07-18 22:31:00,85.5,70.9,29.73,WSW,256,2.0,9.0,62,0.00,,,0.00,meteohub,2013-07-19 03:31:00,
2013-07-18 22:37:00,85.5,70.9,29.73,WNW,285,1.0,9.0,62,0.00,,,0.00,meteohub,2013-07-19 03:37:00,
2013-07-18 22:42:00,85.5,70.9,29.72,West,263,1.0,9.0,62,0.00,,,0.00,meteohub,2013-07-19 03:42:00,
2013-07-18 22:47:00,85.3,70.7,29.72,West,263,1.0,5.0,62,0.00,,,0.00,meteohub,2013-07-19 03:47:00,
2013-07-18 22:52:00,85.3,70.7,29.72,WSW,248,0.0,6.0,62,0.00,,,0.00,meteohub,2013-07-19 03:52:00,
2013-07-18 22:57:00,85.1,71.1,29.72,West,261,0.0,6.0,63,0.00,,,0.00,meteohub,2013-07-19 03:57:00,
2013-07-18 23:01:00,84.9,70.9,29.72,WNW,292,0.0,6.0,63,0.00,,,0.00,meteohub,2013-07-19 04:01:00,
2013-07-18 23:02:00,84.9,70.9,29.72,WSW,244,0.0,6.0,63,0.00,,,0.00,meteohub,2013-07-19 04:02:00,
2013-07-18 23:03:00,84.9,70.9,29.71,West,260,0.0,6.0,63,0.00,,,0.00,meteohub,2013-07-19 04:03:00,
2013-07-18 23:08:00,84.7,70.7,29.72,WNW,288,0.0,5.0,63,0.00,,,0.00,meteohub,2013-07-19 04:08:00,
2013-07-18 23:13:00,84.7,70.7,29.71,West,259,1.0,5.0,63,0.00,,,0.00,meteohub,2013-07-19 04:13:00,
2013-07-18 23:18:00,84.7,70.7,29.71,West,276,2.0,9.0,63,0.00,,,0.00,meteohub,2013-07-19 04:18:00,
2013-07-18 23:23:00,84.6,70.5,29.71,WSW,253,0.0,9.0,63,0.00,,,0.00,meteohub,2013-07-19 04:23:00,
2013-07-18 23:28:00,84.6,70.5,29.71,West,267,0.0,9.0,63,0.00,,,0.00,meteohub,2013-07-19 04:28:00,
2013-07-18 23:33:00,84.6,71.1,29.71,West,270,0.0,9.0,64,0.00,,,0.00,meteohub,2013-07-19 04:33:00,
2013-07-18 23:39:00,84.6,71.1,29.71,NW,304,0.0,10.0,64,0.00,,,0.00,meteohub,2013-07-19 04:39:00,
2013-07-18 23:44:00,84.4,70.9,29.71,WSW,254,1.0,10.0,64,0.00,,,0.00,meteohub,2013-07-19 04:44:00,
2013-07-18 23:49:00,84.4,70.9,29.71,WSW,256,0.0,10.0,64,0.00,,,0.00,meteohub,2013-07-19 04:49:00,
2013-07-18 23:54:00,84.4,70.9,29.71,WSW,245,1.0,5.0,64,0.00,,,0.00,meteohub,2013-07-19 04:54:00,
2013-07-18 23:59:00,84.4,70.9,29.71,NW,324,0.0,11.0,64,0.00,,,0.00,meteohub,2013-07-19 04:59:00,